[[{"header":{"parameterUnit":"m.s-1","parameterCategory":2,"la1":30.2991,"la2":30.254,"lo1":-89.0895,"lo2":-89.0444,"dy":0.0017,"dx":0.0017,"nx":28,"ny":28,"refTime":"2024-04-12T03:00:00:Z","depth":"0","parameterNumber":2,"parameterNumberName":"U-component_of_CURRENTS"},"data":[0,0,0,0,0,0,0,0,0,0,0,0,0,0,0,0,0,0,0,0,0,0,0,0,0,0,0,0,0,0,0,0,0,0,0,0,0,0,0,0,0,0,0,0,0,0,0,0,0,0,0,0,0,0,0,0,0,0,0.3301,0.3301,0,0.3323,0.3323,0.3324,0.3312,0.3312,0.3311,0.3311,0.3351,0.3353,0.3354,0,0,0,0,0,0,0,0,0,0,0,0,0,0.3291,0.3291,0.3301,0.3301,0.3302,0.3323,0.3323,0.3324,0.3312,0.3312,0.3311,0.3311,0.3351,0.3352,0.3354,0,0,0,0,0,0,0,0,0,0,0,0,0,0.3302,0.3291,0.3301,0.33,0.33,0.3323,0.3323,0.3324,0.3313,0.3312,0.3311,0.331,0.335,0.3352,0.3355,0.3383,0,0,0.3362,0.3363,0,0,0,0,0,0,0,0,0.3301,0.3302,0.3299,0.33,0.33,0.3315,0.3335,0.3345,0.3313,0.3307,0.3311,0.331,0.3342,0.3345,0.3349,0.3385,0.3387,0.3362,0.3363,0.3364,0.3365,0,0,0,0,0,0,0,0.33,0.3301,0.3309,0.33,0.33,0.3312,0.3312,0.3337,0.3328,0.3307,0.3307,0.3311,0.3342,0.3347,0.335,0.3388,0.3362,0.3364,0.3365,0.3366,0.3543,0.3546,0,0,0,0,0,0,0.3298,0.33,0.3308,0.331,0.33,0.3313,0.3313,0.331,0.3327,0.3329,0.3311,0.331,0.3343,0.3347,0.3351,0.349,0.3364,0.3366,0.3368,0.354,0.3544,0.3548,0,0,0,0,0,0,0.3298,0.3298,0.3307,0.3307,0.3309,0.3314,0.3311,0.3311,0.3324,0.333,0.3332,0.3325,0.3343,0.3348,0.3399,0.3487,0.3367,0.3369,0.3536,0.3541,0.3546,0.3701,0,0,0,0,0,0,0.3297,0.3298,0.3299,0.3306,0.3309,0.3346,0.3312,0.3312,0.3327,0.3326,0.3343,0.3345,0.3343,0.3396,0.3402,0.3488,0.3371,0.3532,0.3538,0.3544,0.3691,0.371,0.3727,0,0,0,0,0,0.3297,0.3308,0.3299,0.33,0.3309,0.3348,0.3352,0.3351,0.3329,0.3355,0.3365,0.3345,0.344,0.3401,0.3406,0.3496,0.3529,0.3536,0.3544,0.3684,0.3707,0.3726,0,0,0,0,0,0,0.3304,0.3308,0.3298,0.3309,0.3336,0.3347,0.337,0.3361,0.3386,0.3389,0.3377,0.3383,0.3468,0.3453,0.3409,0.3565,0.3486,0.3495,0.359,0.3612,0.3629,0.3638,0.3373,0,0,0,0,0,0.3305,0.3318,0.3328,0.3343,0.3357,0.3363,0.3377,0.3382,0.3402,0.3411,0.3425,0.345,0.3504,0.353,0.3564,0.3639,0.3659,0.3703,0.3721,0.3736,0.3748,0.3853,0.3882,0.3572,0.3572,0.3572,0,0,0.3309,0.3318,0.3321,0.3346,0.3364,0.3419,0.3371,0.3411,0.3466,0.3415,0.3495,0.3511,0.3536,0.3632,0.367,0.363,0.384,0.3745,0.3758,0.3762,0.3864,0.3895,0.3922,0.3577,0.3576,0.3576,0,0,0.3353,0.3339,0.3376,0.3408,0.3449,0.3464,0.3479,0.3508,0.3531,0.3601,0.3596,0.3663,0.3716,0.3773,0.3802,0.3935,0.3929,0.3945,0.4047,0.4151,0.4178,0.4201,0.4291,0.4321,0.3956,0.3956,0.3956,0,0.3359,0.3401,0.3397,0.3458,0.3494,0.3491,0.3557,0.3595,0.364,0.3681,0.3649,0.3782,0.3796,0.3939,0.3986,0.3981,0.4022,0.3966,0.4176,0.4199,0.4221,0.4307,0.4338,0.3964,0.3963,0.3963,0.3962,0,0.3445,0.348,0.3514,0.3587,0.363,0.3686,0.3736,0.3787,0.3805,0.3843,0.3967,0.3997,0.4075,0.4105,0.4084,0.4257,0.4232,0.4186,0.4123,0.4262,0.4343,0.4373,0.3976,0.3973,0.3971,0.3969,0,0,0.345,0.3549,0.3561,0.3617,0.3699,0.3748,0.3853,0.3948,0.4026,0.4086,0.42,0.43,0.4304,0.4338,0.4342,0.4424,0.4616,0.4371,0.4372,0.4461,0.4848,0.4752,0.4775,0.4605,0.4611,0.4615,0.4853,0,0.3518,0.3639,0.3675,0.3804,0.3872,0.3914,0.4015,0.4105,0.4167,0.4279,0.4345,0.4449,0.4401,0.4447,0.4536,0.4592,0.4697,0.4555,0.4697,0.4702,0.4602,0.4807,0.4534,0.4715,0.4882,0.4887,0.489,0,0.3595,0.3665,0.3788,0.3916,0.3951,0.403,0.4176,0.4268,0.4415,0.4462,0.4575,0.4613,0.4771,0.4683,0.4895,0.4805,0.4848,0.4878,0.4887,0.476,0.4662,0.4599,0.4762,0.4634,0.4935,0.4932,0.4928,0,0.3611,0.3747,0.3844,0.3889,0.4034,0.4102,0.4184,0.4326,0.4428,0.4583,0.4667,0.4826,0.4929,0.5018,0.5078,0.5008,0.5283,0.5195,0.5162,0.5155,0.493,0.4893,0.4981,0.5359,0.5359,0.5358,0.5357,0,0.3668,0.3747,0.3858,0.3915,0.4055,0.4138,0.4301,0.4386,0.4546,0.4692,0.4765,0.4901,0.5016,0.5164,0.5182,0.5286,0.5388,0.5235,0.5234,0.4976,0.4943,0.4819,0.4753,0.5367,0.5365,0.5363,0.5362,0,0.368,0.3745,0.3871,0.4015,0.4069,0.4171,0.4364,0.4485,0.4604,0.4795,0.4854,0.5035,0.5212,0.5311,0.5481,0.5433,0.536,0.5517,0.5201,0.5157,0.4945,0.4896,0.4826,0.4696,0.5533,0.5533,0.5532,0,0.3705,0.3769,0.3931,0.402,0.4088,0.4244,0.4364,0.4505,0.4628,0.4868,0.4964,0.5182,0.5303,0.5516,0.5491,0.5554,0.5378,0.5315,0.5123,0.4954,0.4901,0.4709,0.4591,0.4906,0.49,0.4896,0.4892,0,0.3772,0.3819,0.3921,0.4086,0.4215,0.4352,0.4513,0.4601,0.4776,0.4893,0.5069,0.5173,0.5354,0.5285,0.5344,0.5325,0.5026,0.5222,0.5138,0.4514,0.4222,0.4085,0.4734,0.4851,0.4855,0.4858,0.486,0.4862,0.3834,0.3899,0.4034,0.4181,0.4312,0.442,0.4455,0.4601,0.4727,0.4791,0.5014,0.5003,0.5035,0.5065,0.5026,0.4763,0.4804,0.4568,0.4561,0.4414,0.4156,0.4719,0.4764,0.4767,0.477,0.4773,0.4775,0,0.3911,0.3983,0.4131,0.4262,0.4347,0.4416,0.4524,0.4476,0.4499,0.4602,0.4662,0.4593,0.4487,0.4449,0.4289,0.4119,0.3903,0.4002,0.3664,0.3613,0.42,0.4036,0.3812,0.3812,0.3812,0.3812,0.3813,0.3813,0.3967,0.4079,0.4124,0.4254,0.4317,0.4291,0.4278,0.419,0.4178,0.4037,0.3922,0.3957,0.4044,0.3971,0.3737,0.3631,0.3377,0.3188,0.3277,0.3675,0.3726,0.3774,0.3606,0.3295,0.3294,0.2471,0.2464,0.246]},{"header":{"parameterUnit":"m.s-1","parameterCategory":2,"la1":30.2991,"la2":30.254,"lo1":-89.0895,"lo2":-89.0444,"dy":0.0017,"dx":0.0017,"nx":28,"ny":28,"refTime":"2024-04-12T03:00:00:Z","depth":"0","parameterNumber":3,"parameterNumberName":"V-component_of_CURRENTS"},"data":[0,0,0,0,0,0,0,0,0,0,0,0,0,0,0,0,0,0,0,0,0,0,0,0,0,0,0,0,0,0,0,0,0,0,0,0,0,0,0,0,0,0,0,0,0,0,0,0,0,0,0,0,0,0,0,0,0,0,0.0231,0.0231,0,0.0186,0.0185,0.0184,0.0145,0.0145,0.0145,0.0145,0.0061,0.0059,0.0057,0,0,0,0,0,0,0,0,0,0,0,0,0,0.0248,0.0248,0.0231,0.0231,0.023,0.0186,0.0185,0.0184,0.0145,0.0145,0.0145,0.0144,0.0062,0.006,0.0057,0,0,0,0,0,0,0,0,0,0,0,0,0,0.0224,0.0248,0.0231,0.0207,0.0204,0.0186,0.0185,0.0184,0.0146,0.0145,0.0145,0.0144,0.0063,0.006,0.0057,0.0047,0,0,0.0048,0.0047,0,0,0,0,0,0,0,0,0.0225,0.0223,0.0211,0.0208,0.0206,0.0172,0.016,0.0137,0.0146,0.0166,0.0145,0.0144,0.0096,0.0091,0.0081,0.0043,0.004,0.0048,0.0046,0.0045,0.0044,0,0,0,0,0,0,0,0.0227,0.0225,0.0211,0.021,0.0207,0.0186,0.0182,0.0156,0.0132,0.0164,0.0162,0.016,0.0094,0.0084,0.0079,0.0039,0.0048,0.0045,0.0043,0.0042,0.0002,0.0003,0,0,0,0,0,0,0.0238,0.0227,0.0213,0.021,0.0217,0.0186,0.0182,0.0182,0.0133,0.0126,0.016,0.0158,0.0089,0.0082,0.0076,0.0086,0.0045,0.0042,0.004,0.0001,0.0002,0.0003,0,0,0,0,0,0,0.0239,0.0238,0.0215,0.0218,0.0214,0.0187,0.0187,0.0181,0.0175,0.0131,0.0122,0.016,0.0089,0.008,0.0062,0.0081,0.0041,0.0038,0.0001,0.0002,0.0003,0.0089,0,0,0,0,0,0,0.024,0.0238,0.0242,0.0219,0.0214,0.0216,0.0187,0.0181,0.0174,0.0171,0.0127,0.0119,0.0088,0.0067,0.0059,0.0076,0.0036,-0.0,0.0001,0.0002,0.0086,0.0093,0.01,0,0,0,0,0,0.0241,0.0251,0.0242,0.024,0.022,0.0217,0.0212,0.019,0.0175,0.018,0.015,0.0121,0.007,0.0065,0.0056,0.0073,-0.0001,0.0001,0.0002,0.0083,0.0092,0.01,0,0,0,0,0,0,0.0256,0.0248,0.0237,0.0243,0.0235,0.0211,0.0211,0.0197,0.0177,0.0171,0.0128,0.0118,0.0107,0.0078,0.0075,0.0064,0.003,0.003,0.0094,0.0102,0.0109,0.0156,0.0033,0,0,0,0,0,0.0263,0.027,0.0257,0.0261,0.026,0.0237,0.0231,0.0218,0.0198,0.0189,0.016,0.0129,0.0106,0.0096,0.0067,0.0064,0.0056,0.0069,0.0076,0.0082,0.0113,0.0114,0.0125,0.0008,0.0008,0.0008,0,0,0.0268,0.0266,0.0267,0.0265,0.0254,0.0269,0.0232,0.0231,0.0248,0.0182,0.019,0.0148,0.0109,0.0104,0.0098,0.0084,0.0109,0.0084,0.009,0.0118,0.0117,0.0128,0.0139,0.0009,0.0009,0.0009,0,0,0.0297,0.0282,0.0305,0.0305,0.03,0.029,0.0295,0.0278,0.0275,0.0271,0.0232,0.0211,0.0171,0.0157,0.0142,0.0173,0.0142,0.0154,0.0234,0.0234,0.0244,0.0253,0.0254,0.0263,0.0164,0.0164,0.0164,0,0.0303,0.0334,0.031,0.0335,0.0348,0.0307,0.0343,0.0332,0.0313,0.0327,0.0285,0.0253,0.0203,0.0225,0.0227,0.0192,0.0188,0.0205,0.0246,0.0254,0.0262,0.0261,0.0269,0.0168,0.0168,0.0167,0.0167,0,0.0355,0.0379,0.0392,0.0415,0.0422,0.0441,0.0433,0.0441,0.0422,0.0414,0.0423,0.036,0.0354,0.032,0.0278,0.0314,0.0292,0.025,0.023,0.028,0.0275,0.0282,0.0174,0.0173,0.0172,0.017,0,0,0.0379,0.0423,0.043,0.0471,0.0471,0.0494,0.052,0.0551,0.0598,0.055,0.0614,0.0541,0.0513,0.0496,0.0443,0.043,0.0455,0.0371,0.0369,0.0385,0.0464,0.0421,0.0423,0.0421,0.0423,0.0424,0.0438,0,0.0434,0.0516,0.0515,0.0594,0.0641,0.0625,0.0668,0.0685,0.0682,0.0727,0.0672,0.0692,0.0581,0.0588,0.0558,0.0491,0.0479,0.0456,0.0405,0.0404,0.0369,0.0432,0.0416,0.0426,0.0445,0.0446,0.0447,0,0.0494,0.0548,0.0642,0.0726,0.0745,0.0783,0.0864,0.0896,0.0927,0.0929,0.0928,0.0887,0.0878,0.0769,0.0695,0.0688,0.0593,0.0521,0.0519,0.0461,0.0374,0.0379,0.0437,0.0241,0.0457,0.0456,0.0456,0,0.0561,0.0642,0.0733,0.0755,0.0831,0.0883,0.0923,0.0964,0.1024,0.1071,0.1122,0.1081,0.1098,0.0974,0.0817,0.0766,0.0735,0.0642,0.0515,0.051,0.0481,0.0471,0.0359,0.0596,0.0596,0.0596,0.0596,0,0.0634,0.0708,0.0779,0.0832,0.0956,0.0973,0.1098,0.1129,0.1202,0.1311,0.1242,0.133,0.1151,0.1102,0.0913,0.0761,0.0811,0.0561,0.0523,0.0508,0.05,0.0313,0.0211,0.0596,0.0596,0.0596,0.0596,0,0.0703,0.0742,0.0858,0.0957,0.0995,0.1086,0.1206,0.1294,0.135,0.1497,0.1528,0.1543,0.1493,0.1296,0.1128,0.0914,0.0637,0.0671,0.0667,0.0628,0.0286,0.0191,0.0068,-0.0003,0.0533,0.0532,0.0531,0,0.0751,0.0817,0.0949,0.1021,0.1072,0.1196,0.1285,0.1362,0.1464,0.1642,0.1734,0.1751,0.1802,0.1539,0.1178,0.0873,0.0664,0.062,0.0499,0.0297,0.0163,0.0081,0.0025,0.0493,0.0492,0.0491,0.049,0,0.0846,0.0888,0.098,0.1118,0.1227,0.136,0.1496,0.1604,0.1733,0.1892,0.2102,0.2171,0.1938,0.1646,0.1202,0.0962,0.0481,0.0592,0.0392,0.0146,0.0044,-0.0051,0.0449,0.0483,0.0484,0.0485,0.0485,0.0485,0.0914,0.0985,0.1092,0.1223,0.1351,0.1517,0.1653,0.1823,0.2046,0.2313,0.2364,0.2509,0.2044,0.1457,0.1104,0.0423,0.0437,0.0183,0.0095,0.0037,-0.0062,0.0425,0.04,0.04,0.0401,0.0401,0.0401,0,0.0989,0.1059,0.1185,0.1349,0.1494,0.1552,0.1789,0.195,0.2246,0.2494,0.27,0.2547,0.1976,0.136,0.0439,-0.0017,-0.0163,-0.0244,-0.0369,-0.0396,0.0047,0.001,-0.011,-0.011,-0.011,-0.011,-0.0109,-0.0109,0.1033,0.1146,0.1198,0.1431,0.1557,0.1779,0.193,0.2195,0.2412,0.2718,0.2809,0.2848,0.2349,0.0804,-0.0248,-0.0472,-0.0738,-0.081,-0.0919,-0.0648,-0.0616,-0.0585,-0.0645,-0.0901,-0.0902,-0.1327,-0.1331,-0.1335]}],[{"header":{"parameterUnit":"m.s-1","parameterCategory":2,"la1":30.2991,"la2":30.254,"lo1":-89.0895,"lo2":-89.0444,"dy":0.0017,"dx":0.0017,"nx":28,"ny":28,"refTime":"2024-04-12T03:00:00:Z","depth":"2","parameterNumber":2,"parameterNumberName":"U-component_of_CURRENTS"},"data":[0,0,0,0,0,0,0,0,0,0,0,0,0,0,0,0,0,0,0,0,0,0,0,0,0,0,0,0,0,0,0,0,0,0,0,0,0,0,0,0,0,0,0,0,0,0,0,0,0,0,0,0,0,0,0,0,0,0,0.2767,0.2768,0,0.2788,0.2788,0.2788,0.2793,0.2793,0.2793,0.2793,0.2832,0.2833,0.2834,0,0,0,0,0,0,0,0,0,0,0,0,0,0.2754,0.2754,0.2767,0.2768,0.2768,0.2788,0.2788,0.2788,0.2793,0.2793,0.2793,0.2793,0.2832,0.2833,0.2834,0,0,0,0,0,0,0,0,0,0,0,0,0,0.2764,0.2754,0.2767,0.2774,0.2775,0.2788,0.2788,0.2788,0.2793,0.2793,0.2793,0.2793,0.2831,0.2833,0.2834,0.2842,0,0,0.2839,0.284,0,0,0,0,0,0,0,0,0.2763,0.2764,0.2773,0.2774,0.2775,0.279,0.2798,0.2808,0.2793,0.2784,0.2793,0.2793,0.2821,0.2823,0.2824,0.2844,0.2846,0.2839,0.284,0.2841,0.2841,0,0,0,0,0,0,0,0.2762,0.2763,0.2773,0.2773,0.2775,0.2785,0.2786,0.28,0.2801,0.2785,0.2786,0.2792,0.2821,0.2823,0.2825,0.2846,0.2839,0.284,0.2841,0.2842,0.2945,0.2947,0,0,0,0,0,0,0.2763,0.2762,0.2773,0.2774,0.2771,0.2785,0.2786,0.2783,0.28,0.2803,0.2792,0.2792,0.282,0.2823,0.2827,0.2936,0.2841,0.2842,0.2843,0.2943,0.2946,0.2948,0,0,0,0,0,0,0.2762,0.2763,0.2772,0.2771,0.2773,0.2785,0.2782,0.2784,0.28,0.2805,0.2808,0.2807,0.282,0.2824,0.2858,0.2934,0.2843,0.2844,0.2941,0.2944,0.2947,0.3092,0,0,0,0,0,0,0.2761,0.2762,0.2767,0.2771,0.2773,0.279,0.2783,0.2784,0.2803,0.2804,0.282,0.2822,0.2821,0.2856,0.286,0.2934,0.2845,0.2939,0.2943,0.2946,0.3085,0.31,0.3112,0,0,0,0,0,0.2761,0.2766,0.2767,0.2769,0.2777,0.2791,0.2793,0.28,0.2804,0.2814,0.2831,0.2823,0.2881,0.2859,0.2863,0.294,0.2937,0.2942,0.2946,0.3079,0.3097,0.3112,0,0,0,0,0,0,0.2763,0.2767,0.2768,0.2774,0.2787,0.2792,0.2804,0.2811,0.283,0.2835,0.284,0.2845,0.29,0.289,0.2865,0.2975,0.2911,0.2916,0.3011,0.3028,0.3041,0.3042,0.2846,0,0,0,0,0,0.2765,0.277,0.2778,0.2785,0.2792,0.2802,0.2811,0.2816,0.2832,0.284,0.2858,0.2881,0.2918,0.2947,0.2956,0.302,0.3031,0.307,0.3084,0.3096,0.3097,0.3185,0.3207,0.2961,0.2961,0.2961,0,0,0.2767,0.2773,0.2775,0.2787,0.2796,0.2832,0.2807,0.2825,0.2878,0.2843,0.2916,0.2917,0.2937,0.3008,0.3035,0.3016,0.3175,0.3101,0.3112,0.3106,0.3192,0.3216,0.3238,0.2964,0.2964,0.2963,0,0,0.2784,0.278,0.2796,0.2821,0.2842,0.2852,0.2863,0.2882,0.2911,0.2973,0.2968,0.3014,0.3066,0.3105,0.3132,0.3223,0.3228,0.323,0.3327,0.3413,0.3435,0.3454,0.352,0.3543,0.3257,0.3258,0.3258,0,0.2791,0.2814,0.2805,0.2846,0.2879,0.287,0.2917,0.2951,0.2986,0.3019,0.3014,0.3111,0.3124,0.3232,0.3269,0.3261,0.3295,0.3272,0.3435,0.3454,0.3471,0.3533,0.3557,0.3265,0.3264,0.3264,0.3263,0,0.2834,0.2864,0.288,0.2932,0.2964,0.2996,0.3044,0.3081,0.3115,0.315,0.3244,0.327,0.3336,0.3357,0.335,0.3482,0.3463,0.3431,0.3401,0.3505,0.3563,0.3586,0.3276,0.3273,0.3271,0.3269,0,0,0.2824,0.2894,0.2906,0.2947,0.3014,0.3041,0.3134,0.3203,0.3272,0.3327,0.3436,0.3507,0.3512,0.354,0.3548,0.3621,0.3782,0.3589,0.3591,0.3668,0.3974,0.3843,0.3855,0.379,0.3794,0.3797,0.3974,0,0.2863,0.2949,0.2981,0.3074,0.312,0.3162,0.3244,0.3312,0.3384,0.3483,0.3541,0.3635,0.3594,0.3648,0.372,0.3751,0.3845,0.3736,0.3848,0.3851,0.3734,0.3878,0.3558,0.3678,0.3996,0.4,0.4002,0,0.29,0.2955,0.3053,0.3141,0.3165,0.3223,0.3344,0.3424,0.3551,0.3617,0.3724,0.3766,0.3895,0.3844,0.3994,0.393,0.3972,0.399,0.3997,0.3834,0.3762,0.3619,0.3706,0.404,0.4037,0.4034,0.4031,0,0.289,0.3001,0.3079,0.3122,0.3226,0.3278,0.3334,0.3454,0.3539,0.372,0.3809,0.3938,0.4037,0.4107,0.4153,0.4102,0.4298,0.4236,0.4163,0.4154,0.3878,0.3836,0.4366,0.4366,0.4365,0.4365,0.4364,0,0.2911,0.2972,0.3082,0.3122,0.3199,0.329,0.3402,0.347,0.3632,0.3746,0.388,0.4002,0.4111,0.4223,0.4236,0.4275,0.4386,0.4207,0.4205,0.3918,0.3879,0.4168,0.4143,0.4371,0.437,0.4369,0.4367,0,0.2889,0.2959,0.3057,0.3175,0.3187,0.3265,0.3396,0.3488,0.3649,0.3821,0.3894,0.4095,0.4233,0.4313,0.4442,0.4382,0.4426,0.4415,0.4059,0.401,0.4203,0.4183,0.4358,0.4355,0.4353,0.4351,0.4349,0,0.2891,0.2946,0.3066,0.3112,0.316,0.3271,0.3318,0.3464,0.3576,0.3859,0.3928,0.4142,0.4239,0.4376,0.4336,0.436,0.4431,0.406,0.3888,0.4229,0.421,0.4194,0.4178,0.3599,0.3592,0.3586,0.3581,0,0.2908,0.2963,0.3013,0.3102,0.3163,0.3242,0.3333,0.3389,0.3598,0.373,0.3906,0.4012,0.4168,0.4034,0.4069,0.4026,0.4017,0.3929,0.4435,0.3628,0.3522,0.35,0.3508,0.3525,0.353,0.3534,0.3537,0.354,0.2891,0.2933,0.3004,0.3063,0.3159,0.3197,0.3191,0.3297,0.3387,0.3496,0.3701,0.3736,0.3792,0.3659,0.3558,0.3486,0.3744,0.3558,0.3574,0.3599,0.3457,0.3349,0.3294,0.3298,0.3302,0.3305,0.3307,0,0.2887,0.2892,0.2956,0.2988,0.3062,0.3144,0.3185,0.313,0.3135,0.3248,0.3322,0.3086,0.3018,0.3089,0.2897,0.2879,0.2828,0.2752,0.2659,0.2719,0.2771,0.2582,0.2191,0.2187,0.2183,0.2179,0,0,0.2872,0.2858,0.2857,0.2871,0.2934,0.2885,0.2882,0.2808,0.2824,0.2712,0.2696,0.2879,0.3024,0.2571,0.2504,0.2321,0.2495,0.2228,0.3136,0.309,0.3137,0.3261,0.3042,0,0,0,0,0]},{"header":{"parameterUnit":"m.s-1","parameterCategory":2,"la1":30.2991,"la2":30.254,"lo1":-89.0895,"lo2":-89.0444,"dy":0.0017,"dx":0.0017,"nx":28,"ny":28,"refTime":"2024-04-12T03:00:00:Z","depth":"2","parameterNumber":3,"parameterNumberName":"V-component_of_CURRENTS"},"data":[0,0,0,0,0,0,0,0,0,0,0,0,0,0,0,0,0,0,0,0,0,0,0,0,0,0,0,0,0,0,0,0,0,0,0,0,0,0,0,0,0,0,0,0,0,0,0,0,0,0,0,0,0,0,0,0,0,0,0.0115,0.0114,0,0.0073,0.0073,0.0072,0.0039,0.0039,0.0039,0.0039,-0.0038,-0.0039,-0.0041,0,0,0,0,0,0,0,0,0,0,0,0,0,0.0131,0.0131,0.0115,0.0114,0.0114,0.0073,0.0073,0.0072,0.0039,0.0039,0.0039,0.0039,-0.0037,-0.0039,-0.0041,0,0,0,0,0,0,0,0,0,0,0,0,0,0.0109,0.0131,0.0115,0.0094,0.0092,0.0074,0.0073,0.0072,0.0039,0.0039,0.0039,0.0039,-0.0036,-0.0039,-0.0042,-0.0053,0,0,-0.005,-0.0051,0,0,0,0,0,0,0,0,0.011,0.0108,0.0097,0.0095,0.0093,0.0062,0.005,0.0029,0.0039,0.0058,0.0039,0.0038,-0.0006,-0.0012,-0.002,-0.0056,-0.006,-0.0051,-0.0052,-0.0053,-0.0054,0,0,0,0,0,0,0,0.0112,0.0109,0.0097,0.0097,0.0094,0.0075,0.0071,0.0046,0.0026,0.0056,0.0054,0.0052,-0.0008,-0.0017,-0.0022,-0.0061,-0.005,-0.0053,-0.0055,-0.0056,-0.0096,-0.0095,0,0,0,0,0,0,0.0122,0.0111,0.0098,0.0096,0.0102,0.0075,0.0071,0.0071,0.0027,0.0021,0.0052,0.005,-0.0013,-0.0019,-0.0025,-0.0019,-0.0053,-0.0056,-0.0058,-0.0097,-0.0096,-0.0095,0,0,0,0,0,0,0.0122,0.0121,0.01,0.0103,0.0099,0.0075,0.0076,0.0071,0.0065,0.0025,0.0017,0.0052,-0.0013,-0.0021,-0.0038,-0.0023,-0.0057,-0.006,-0.0097,-0.0096,-0.0095,-0.002,0,0,0,0,0,0,0.0123,0.0122,0.0124,0.0104,0.01,0.01,0.0076,0.007,0.0064,0.0062,0.0022,0.0014,-0.0014,-0.0034,-0.0041,-0.0027,-0.0062,-0.0098,-0.0097,-0.0096,-0.0023,-0.0017,-0.0011,0,0,0,0,0,0.0124,0.0132,0.0125,0.0123,0.0105,0.01,0.0096,0.0077,0.0065,0.0069,0.0042,0.0016,-0.0032,-0.0035,-0.0044,-0.0031,-0.0099,-0.0097,-0.0096,-0.0026,-0.0018,-0.0011,0,0,0,0,0,0,0.0136,0.0129,0.0121,0.0125,0.0118,0.0096,0.0095,0.0083,0.0065,0.006,0.0022,0.0013,0.0002,-0.0024,-0.0027,-0.0039,-0.0069,-0.0069,-0.0013,-0.0006,0.0,0.0032,-0.0064,0,0,0,0,0,0.0142,0.0148,0.0136,0.0139,0.0138,0.0118,0.0112,0.0102,0.0083,0.0075,0.0049,0.0021,0.0001,-0.001,-0.0035,-0.0041,-0.0065,-0.0038,-0.0032,-0.0027,-0.0007,-0.003,-0.0024,-0.0091,-0.0091,-0.0091,0,0,0.0146,0.0143,0.0145,0.0142,0.0132,0.0146,0.0114,0.0112,0.0128,0.0069,0.0076,0.0039,0.0003,-0.0003,-0.0009,-0.0022,-0.0022,-0.0025,-0.002,-0.0003,-0.0028,-0.0022,-0.0016,-0.009,-0.009,-0.009,0,0,0.0169,0.0157,0.0177,0.0176,0.0172,0.0163,0.0168,0.0153,0.015,0.0148,0.0112,0.0092,0.0058,0.0041,0.0027,0.0053,0.0009,0.0038,0.0098,0.0075,0.008,0.0085,0.0058,0.006,0.0044,0.0044,0.0044,0,0.0175,0.0202,0.018,0.0202,0.0213,0.0179,0.021,0.0201,0.0184,0.0189,0.0161,0.0124,0.0085,0.0091,0.0096,0.0069,0.0045,0.0073,0.0084,0.0088,0.0091,0.0063,0.0064,0.0048,0.0048,0.0047,0.0047,0,0.022,0.0241,0.0251,0.0273,0.0279,0.0296,0.0289,0.0294,0.028,0.0268,0.0265,0.0213,0.0198,0.0174,0.0141,0.0151,0.0122,0.0092,0.0069,0.0103,0.007,0.007,0.0054,0.0052,0.0051,0.005,0,0,0.0241,0.0279,0.0285,0.0319,0.0322,0.0339,0.0363,0.0383,0.0415,0.0374,0.0411,0.0354,0.0321,0.0305,0.0257,0.0231,0.0221,0.0178,0.0175,0.0159,0.0168,0.0112,0.0106,0.019,0.019,0.0191,0.0134,0,0.0288,0.0361,0.036,0.0426,0.0467,0.0451,0.0487,0.0494,0.0487,0.0509,0.0452,0.046,0.0374,0.0376,0.0333,0.0256,0.0225,0.024,0.0132,0.0129,0.0081,0.0105,0.0144,0.0093,0.0133,0.0133,0.0133,0,0.0341,0.0389,0.047,0.0534,0.0549,0.0579,0.0637,0.0664,0.067,0.0667,0.0648,0.0603,0.0569,0.0492,0.0376,0.0388,0.0292,0.0218,0.0213,0.0139,0.0073,0.0065,0.009,0.0132,0.0132,0.0132,0.0132,0,0.0394,0.0466,0.0541,0.056,0.062,0.0658,0.0691,0.0714,0.0764,0.0778,0.0814,0.0739,0.0736,0.06,0.0437,0.0412,0.0303,0.0247,0.0106,0.0101,0.0103,0.0097,0.0173,0.0173,0.0173,0.0173,0.0173,0,0.0452,0.0512,0.0577,0.0619,0.072,0.0732,0.0831,0.0851,0.0903,0.0991,0.0907,0.096,0.0764,0.0674,0.0494,0.0305,0.0345,0.0129,0.0088,0.0128,0.0124,0.0133,0.013,0.0171,0.0171,0.0172,0.0172,0,0.0501,0.0537,0.0634,0.0718,0.075,0.0826,0.0932,0.1003,0.1041,0.116,0.1181,0.1135,0.1016,0.0797,0.0589,0.0401,0.0211,0.0133,0.0189,0.0154,0.0006,0.0007,-0.0032,-0.0034,-0.0036,-0.0037,-0.0039,0,0.0535,0.0591,0.071,0.0776,0.0818,0.0928,0.1008,0.1071,0.1167,0.1281,0.1357,0.1284,0.1252,0.0903,0.0569,0.0245,0.0204,0.0058,0.0005,0.0024,-0.0012,-0.0008,-0.0005,0.0038,0.0037,0.0036,0.0036,0,0.0605,0.0645,0.0726,0.0865,0.0962,0.1091,0.1221,0.1326,0.1435,0.1535,0.1659,0.1639,0.1315,0.0995,0.0533,0.0311,0.0103,0.0034,0.0066,0.0074,0.0082,0.0048,0.0051,0.0031,0.0032,0.0032,0.0032,0.0032,0.0658,0.073,0.0835,0.0973,0.1088,0.1267,0.1402,0.1548,0.173,0.1888,0.1852,0.1811,0.1441,0.0839,0.046,0.0058,0.007,-0.0078,-0.0072,-0.0067,-0.0059,-0.0056,-0.013,-0.0131,-0.0131,-0.0131,-0.0132,0,0.0735,0.0816,0.0937,0.1122,0.1278,0.1318,0.155,0.1691,0.1926,0.1997,0.2054,0.169,0.1323,0.0897,0.0308,-0.0056,-0.0071,-0.0178,-0.0103,-0.0095,-0.0089,-0.0079,-0.0158,-0.0159,-0.016,-0.0161,0,0,0.0779,0.0901,0.0971,0.1253,0.1389,0.1594,0.174,0.1931,0.2036,0.2102,0.2047,0.1918,0.1437,0.0996,0.0516,0.0189,0.0125,0.0113,0.0174,0.0329,0.0339,0.0009,0.0037,0,0,0,0,0]}],[{"header":{"parameterUnit":"m.s-1","parameterCategory":2,"la1":30.2991,"la2":30.254,"lo1":-89.0895,"lo2":-89.0444,"dy":0.0017,"dx":0.0017,"nx":28,"ny":28,"refTime":"2024-04-12T03:00:00:Z","depth":"4","parameterNumber":2,"parameterNumberName":"U-component_of_CURRENTS"},"data":[0,0,0,0,0,0,0,0,0,0,0,0,0,0,0,0,0,0,0,0,0,0,0,0,0,0,0,0,0,0,0,0,0,0,0,0,0,0,0,0,0,0,0,0,0,0,0,0,0,0,0,0,0,0,0,0,0,0,0.1769,0.177,0,0.1829,0.183,0.183,0.1895,0.1896,0.1897,0.1898,0.1986,0.1988,0.1989,0,0,0,0,0,0,0,0,0,0,0,0,0,0.1717,0.1717,0.1769,0.177,0.1771,0.1829,0.183,0.1831,0.1895,0.1896,0.1897,0.1898,0.1986,0.1987,0.1989,0,0,0,0,0,0,0,0,0,0,0,0,0,0.1754,0.1718,0.1769,0.181,0.1814,0.1829,0.183,0.1831,0.1894,0.1896,0.1897,0.1899,0.1985,0.1987,0.1989,0.1974,0,0,0.1996,0.1997,0,0,0,0,0,0,0,0,0.1752,0.1756,0.1803,0.1807,0.1812,0.1857,0.1844,0.188,0.1894,0.1863,0.1898,0.1899,0.1945,0.195,0.1957,0.1978,0.1982,0.1996,0.1998,0.1999,0.1999,0,0,0,0,0,0,0,0.1749,0.1753,0.1792,0.1804,0.1809,0.1828,0.1835,0.1851,0.1895,0.1866,0.1871,0.1878,0.1948,0.1955,0.196,0.1983,0.1996,0.1998,0.2,0.2,0.2108,0.211,0,0,0,0,0,0,0.1741,0.1751,0.179,0.1794,0.1786,0.1828,0.1835,0.184,0.1895,0.1904,0.1877,0.1881,0.195,0.1957,0.1963,0.2047,0.1999,0.2001,0.2002,0.2107,0.2109,0.211,0,0,0,0,0,0,0.1739,0.1744,0.1788,0.1775,0.1782,0.1827,0.1832,0.1841,0.1887,0.1903,0.1913,0.1919,0.1952,0.196,0.2004,0.2047,0.2002,0.2004,0.2105,0.2107,0.2109,0.215,0,0,0,0,0,0,0.1738,0.1743,0.1764,0.1774,0.1782,0.1815,0.1831,0.1841,0.1887,0.1894,0.1941,0.1949,0.1954,0.2001,0.2006,0.2049,0.2005,0.2103,0.2106,0.2109,0.2147,0.2154,0.216,0,0,0,0,0,0.1735,0.1744,0.1765,0.1771,0.1803,0.1816,0.1822,0.1859,0.1888,0.1907,0.1941,0.1949,0.2024,0.2003,0.2009,0.2054,0.2101,0.2105,0.2108,0.2144,0.2152,0.2159,0,0,0,0,0,0,0.1736,0.1752,0.1774,0.1791,0.1815,0.1827,0.1852,0.1878,0.1919,0.194,0.1959,0.1968,0.2023,0.2031,0.2008,0.2095,0.2068,0.2073,0.2094,0.2101,0.2108,0.212,0.2007,0,0,0,0,0,0.1744,0.1758,0.1777,0.1796,0.1809,0.184,0.186,0.1884,0.1911,0.1934,0.1966,0.2004,0.2034,0.2063,0.2083,0.2127,0.2151,0.2164,0.217,0.2175,0.219,0.2266,0.2281,0.2122,0.2122,0.2122,0,0,0.1752,0.1763,0.1775,0.1799,0.1822,0.1838,0.1856,0.1891,0.1922,0.1935,0.1997,0.2023,0.2049,0.2097,0.2124,0.2116,0.2231,0.218,0.2184,0.2196,0.2271,0.2287,0.2301,0.2124,0.2124,0.2123,0,0,0.1754,0.1783,0.1793,0.1812,0.1848,0.1862,0.188,0.1915,0.1954,0.2001,0.2025,0.2078,0.2123,0.2155,0.2174,0.2229,0.2255,0.2245,0.2298,0.2371,0.2385,0.2397,0.2435,0.2451,0.2257,0.2257,0.2257,0,0.1772,0.1779,0.1801,0.1813,0.1836,0.1876,0.1896,0.193,0.1981,0.2024,0.203,0.2131,0.215,0.2223,0.2246,0.2245,0.2283,0.2264,0.238,0.2393,0.2405,0.2441,0.2458,0.226,0.2259,0.2259,0.2259,0,0.1766,0.1791,0.1798,0.1828,0.1856,0.1878,0.1922,0.1977,0.2029,0.2066,0.2159,0.219,0.2264,0.2275,0.2278,0.2382,0.2378,0.2371,0.2359,0.2424,0.2457,0.2473,0.2263,0.2262,0.2262,0.2261,0,0,0.1754,0.1789,0.1797,0.1819,0.1868,0.1886,0.1956,0.2023,0.2091,0.2152,0.2241,0.2299,0.2347,0.2373,0.2398,0.2456,0.2564,0.2463,0.2465,0.2498,0.2719,0.2531,0.2531,0.259,0.2593,0.2596,0.2702,0,0.175,0.1772,0.1796,0.1835,0.1851,0.1919,0.1974,0.2052,0.2131,0.2225,0.2295,0.2379,0.2376,0.2434,0.2496,0.2555,0.2613,0.2535,0.2654,0.2657,0.2481,0.2546,0.2607,0.2715,0.2719,0.2721,0.2723,0,0.1731,0.1751,0.1786,0.1847,0.1864,0.1904,0.2025,0.2083,0.2221,0.2296,0.2409,0.2465,0.2584,0.2562,0.2709,0.2668,0.2708,0.2732,0.2736,0.2561,0.25,0.2642,0.2754,0.2751,0.2749,0.2747,0.2745,0,0.1691,0.1743,0.1775,0.1793,0.1868,0.1927,0.1987,0.2117,0.2188,0.2367,0.2449,0.2581,0.2677,0.2754,0.2823,0.2793,0.2959,0.2919,0.2778,0.2765,0.2885,0.2871,0.302,0.302,0.302,0.3019,0.3019,0,0.1651,0.1679,0.1769,0.1778,0.1835,0.1916,0.2006,0.2103,0.2256,0.2343,0.2494,0.2587,0.2739,0.2842,0.2874,0.288,0.3014,0.2799,0.2788,0.2896,0.2882,0.2896,0.288,0.3023,0.3022,0.3022,0.3021,0,0.1576,0.164,0.1673,0.177,0.1808,0.1855,0.1989,0.2043,0.2232,0.2364,0.2432,0.264,0.2777,0.288,0.3015,0.2933,0.2959,0.2927,0.304,0.3032,0.2699,0.2684,0.2767,0.2762,0.2757,0.2753,0.275,0,0.1522,0.1534,0.1639,0.1658,0.1701,0.179,0.183,0.2011,0.2082,0.2365,0.2406,0.2622,0.2736,0.2778,0.2898,0.2943,0.2907,0.2887,0.2775,0.2696,0.2679,0.2671,0.2663,0.2742,0.2741,0.274,0.2739,0,0.1405,0.1466,0.1503,0.154,0.1588,0.1624,0.1721,0.1771,0.1991,0.2186,0.2337,0.2432,0.258,0.2674,0.2739,0.276,0.2876,0.2836,0.2844,0.2739,0.2667,0.2652,0.265,0.2722,0.2725,0.2726,0.2727,0,0.1325,0.1324,0.1381,0.1405,0.1441,0.1435,0.1516,0.1614,0.1725,0.2058,0.2106,0.235,0.2559,0.2581,0.2641,0.265,0.2595,0.2481,0.2507,0.2526,0.2396,0.2265,0.2201,0,0,0,0,0,0.1231,0.1218,0.1223,0.124,0.126,0.1291,0.1414,0.1516,0.1758,0.1801,0.1959,0.2093,0.2223,0.2345,0.2307,0.2504,0.258,0.2442,0.2454,0.2631,0.265,0.2517,0,0,0,0,0,0,0.1176,0.1181,0.1181,0.1084,0.1064,0.1076,0.1152,0.1322,0.1373,0.1646,0.1732,0.1938,0.2093,0.2228,0.2261,0.2293,0.2248,0.2595,0.2589,0.2621,0.2638,0.2653,0.2523,0,0,0,0,0]},{"header":{"parameterUnit":"m.s-1","parameterCategory":2,"la1":30.2991,"la2":30.254,"lo1":-89.0895,"lo2":-89.0444,"dy":0.0017,"dx":0.0017,"nx":28,"ny":28,"refTime":"2024-04-12T03:00:00:Z","depth":"4","parameterNumber":3,"parameterNumberName":"V-component_of_CURRENTS"},"data":[0,0,0,0,0,0,0,0,0,0,0,0,0,0,0,0,0,0,0,0,0,0,0,0,0,0,0,0,0,0,0,0,0,0,0,0,0,0,0,0,0,0,0,0,0,0,0,0,0,0,0,0,0,0,0,0,0,0,0.0089,0.0089,0,0.0063,0.0062,0.0062,0.004,0.004,0.0039,0.0039,-0.002,-0.0021,-0.0022,0,0,0,0,0,0,0,0,0,0,0,0,0,0.0098,0.0098,0.0089,0.0089,0.0088,0.0063,0.0062,0.0062,0.004,0.004,0.0039,0.0039,-0.0019,-0.0021,-0.0023,0,0,0,0,0,0,0,0,0,0,0,0,0,0.0084,0.0098,0.0089,0.0075,0.0073,0.0063,0.0062,0.0062,0.004,0.004,0.0039,0.0039,-0.0019,-0.0021,-0.0023,-0.0031,0,0,-0.0029,-0.003,0,0,0,0,0,0,0,0,0.0085,0.0084,0.0077,0.0076,0.0074,0.0055,0.0044,0.0029,0.004,0.0052,0.0039,0.0039,0.0003,-0.0001,-0.0006,-0.0033,-0.0036,-0.0029,-0.0031,-0.0032,-0.0032,0,0,0,0,0,0,0,0.0086,0.0085,0.0078,0.0077,0.0075,0.0062,0.006,0.0041,0.0028,0.0051,0.0049,0.0048,0.0002,-0.0004,-0.0008,-0.0037,-0.0029,-0.0031,-0.0033,-0.0033,-0.0055,-0.0054,0,0,0,0,0,0,0.0092,0.0086,0.0079,0.0077,0.008,0.0062,0.006,0.0061,0.0029,0.0024,0.0048,0.0047,-0.0,-0.0005,-0.001,0.0004,-0.0032,-0.0034,-0.0035,-0.0055,-0.0054,-0.0054,0,0,0,0,0,0,0.0093,0.0092,0.008,0.0081,0.0079,0.0063,0.0064,0.006,0.0057,0.0027,0.0022,0.0048,-0.0001,-0.0007,-0.0016,0.0,-0.0035,-0.0036,-0.0056,-0.0055,-0.0054,0.0015,0,0,0,0,0,0,0.0093,0.0092,0.0095,0.0082,0.0079,0.0082,0.0064,0.006,0.0057,0.0055,0.0026,0.002,-0.0001,-0.0013,-0.0018,-0.0003,-0.0038,-0.0057,-0.0056,-0.0054,0.0012,0.0019,0.0024,0,0,0,0,0,0.0093,0.01,0.0095,0.0095,0.0083,0.0083,0.0081,0.0067,0.0057,0.0062,0.0044,0.0021,-0.0009,-0.0014,-0.0021,-0.0005,-0.0058,-0.0056,-0.0054,0.001,0.0017,0.0024,0,0,0,0,0,0,0.0102,0.0098,0.0093,0.0097,0.0094,0.008,0.0081,0.0072,0.0061,0.0057,0.0028,0.0021,0.0019,-0.0003,-0.0009,-0.0008,-0.0036,-0.0036,0.0015,0.0022,0.0028,0.0032,-0.004,0,0,0,0,0,0.0106,0.0112,0.0106,0.0109,0.0109,0.0096,0.0093,0.0086,0.0075,0.007,0.0051,0.0031,0.002,0.0013,-0.0004,-0.0004,-0.0041,0.0002,0.0008,0.0013,0.0012,-0.0028,-0.0026,-0.0048,-0.0048,-0.0048,0,0,0.011,0.0109,0.0111,0.0112,0.0106,0.012,0.0094,0.0095,0.0109,0.0064,0.0073,0.0048,0.0023,0.0026,0.0023,0.0011,0.0001,0.0015,0.002,0.0016,-0.0026,-0.0024,-0.0022,-0.0047,-0.0048,-0.0048,0,0,0.0128,0.012,0.0137,0.014,0.0139,0.0134,0.0138,0.0129,0.0129,0.0134,0.0106,0.0091,0.0077,0.0061,0.0053,0.0079,0.0031,0.0077,0.0114,0.0076,0.0077,0.0078,0.0036,0.0033,0.0083,0.0084,0.0084,0,0.0133,0.0154,0.0141,0.016,0.0168,0.0147,0.017,0.0169,0.0159,0.0159,0.0148,0.0119,0.0095,0.0094,0.0107,0.0093,0.0061,0.0091,0.0084,0.0083,0.0083,0.004,0.0035,0.0087,0.0087,0.0086,0.0086,0,0.017,0.0187,0.0196,0.0217,0.0223,0.0238,0.0236,0.0242,0.0235,0.0226,0.022,0.0187,0.0169,0.0163,0.0146,0.0137,0.0112,0.0094,0.0066,0.0089,0.0042,0.0036,0.0092,0.0091,0.009,0.0089,0,0,0.0183,0.0218,0.0223,0.0247,0.0256,0.0268,0.029,0.0302,0.0319,0.0297,0.0309,0.0282,0.025,0.0237,0.0207,0.0176,0.0147,0.0141,0.0137,0.0101,0.0058,0.0041,0.0032,0.0128,0.0127,0.0126,0.0028,0,0.022,0.0276,0.0278,0.033,0.0358,0.035,0.0377,0.038,0.0374,0.0378,0.0333,0.033,0.0284,0.0281,0.024,0.0171,0.0133,0.0175,0.0039,0.0035,0.0018,0.0025,0.0124,0.0022,0.0021,0.002,0.0019,0,0.0259,0.0294,0.0354,0.04,0.0411,0.0437,0.047,0.0494,0.0484,0.0477,0.0447,0.0406,0.0361,0.0322,0.0202,0.0231,0.0151,0.009,0.0084,0.0038,0.0006,-0.0008,0.0007,0.0008,0.0009,0.0009,0.001,0,0.0287,0.0345,0.0399,0.0415,0.0461,0.0488,0.0515,0.0522,0.0559,0.054,0.0549,0.047,0.045,0.0334,0.0204,0.0204,0.0063,0.0045,-0.0052,-0.0054,-0.0041,-0.0041,-0.0046,-0.0046,-0.0046,-0.0045,-0.0045,0,0.0324,0.0367,0.0422,0.0453,0.0528,0.0537,0.0609,0.0618,0.0643,0.0687,0.0607,0.0609,0.0454,0.0354,0.022,0.0064,0.0069,-0.0049,-0.008,-0.0009,-0.0004,-0.0046,-0.0045,-0.0049,-0.0048,-0.0048,-0.0047,0,0.0346,0.0379,0.0452,0.0517,0.0547,0.0603,0.0695,0.0745,0.0751,0.0804,0.0805,0.0719,0.0581,0.0407,0.0217,0.0101,-0.0056,-0.0115,-0.0027,-0.0051,-0.0155,-0.0149,-0.0232,-0.0234,-0.0235,-0.0236,-0.0237,0,0.0364,0.0403,0.0505,0.0562,0.0598,0.0688,0.0757,0.0803,0.0861,0.0871,0.09,0.0784,0.0699,0.0418,0.0221,-0.0052,-0.0089,-0.0175,-0.0168,-0.0152,-0.0174,-0.0166,-0.0158,-0.0238,-0.0239,-0.0239,-0.0239,0,0.04,0.0436,0.0501,0.0618,0.0705,0.0811,0.0909,0.0962,0.1013,0.1013,0.0981,0.0827,0.0665,0.0428,0.0212,0.0019,-0.0122,-0.0188,-0.0187,-0.0181,-0.016,-0.0179,-0.017,-0.0244,-0.0243,-0.0243,-0.0242,0,0.0432,0.0485,0.0572,0.0677,0.0784,0.0897,0.0954,0.102,0.1077,0.1079,0.1063,0.0873,0.0766,0.0464,0.0268,0.0068,0.0016,-0.0045,-0.0052,-0.005,0.0026,0.008,0.0044,0,0,0,0,0,0.0463,0.0526,0.0623,0.0745,0.0846,0.0914,0.1036,0.1083,0.1129,0.112,0.1097,0.0941,0.064,0.0509,0.0307,0.0232,-0.0027,-0.0013,-0.0102,-0.0266,-0.0262,-0.0206,0,0,0,0,0,0,0.0489,0.0578,0.0628,0.0773,0.0854,0.0986,0.1065,0.1106,0.1106,0.1107,0.0953,0.0876,0.0585,0.0746,0.0294,0.0233,0.0147,-0.0154,-0.0159,-0.0269,-0.0265,-0.0261,-0.0202,0,0,0,0,0]}]]